Погода в Дус-Даге

Россия / Республика Тыва     50°48′48″N   92°40′53″E
темп.,
°C
ветер,
м/с
пор.,
м/с
влажн.,
%
обл.,
%
осадки,
мм/ч
давл.,
гПа
погр.,
м
29 января, сб
сб2901:00−29ссв229168 0.0 104810
04:00−30ссв229188 0.0 104910
07:00−30ссв229394 0.0 105010
10:00−28св119596 0.0 105120
13:00−26ю1198100 0.1 1049140
16:00−26ююз119994 0.0 105055
19:00−29с229592 0.0 105211
22:00−29ссв2294100 0.0 105310
30 января, вс
вс3001:00−27св1195100 0.0 105211
04:00−28вюв0098100 0.0 105223
07:00−29св0198100 0.0 105415
10:00−28всв119460 0.0 105428
13:00−27ююз119492 0.0 1053180
16:00−26ююз109533 0.0 105283
19:00−29с228926 0.0 105410
22:00−30ссв228832 0.0 10549
31 января, пн
пн3101:00−30с229353 0.0 10539
04:00−31с229265 0.0 105310
07:00−31с229182 0.0 105410
10:00−29ссв119387 0.0 105418
13:00−27ююз119494 0.0 1052171
16:00−27ююз119745 0.0 105174
19:00−30с228937 0.0 10539
22:00−30ссв228738 0.0 10549
1 февраля, вт
вт101:00−31ссв228735 0.0 10549
04:00−31ссв218946 0.0 10549
07:00−32ссв218852 0.0 105510
10:00−30в009268 0.0 105523
13:00−27ююз219498 0.0 1053130
16:00−27ююз119674 0.0 105368
19:00−30с218889 0.0 10559
22:00−31ссв228560 0.0 10569
2 февраля, ср
ср201:00−31ссв218459 0.0 10569
04:00−32ссв118668 0.0 10569
07:00−32ссв118570 0.0 10569
10:00−30юв018957 0.0 105626
13:00−28ююз119449 0.0 1054123
16:00−27ююз119734 0.0 105374
19:00−30с118968 0.0 10549
22:00−31ссв218728 0.0 10549